Location: Newark
(42.8481°N, 0.4872°E)
Time: 08:56:23
(UTC+00:00)

Transit 2A Rocket - Pass Details

Date: 05 November 2020
Orbit: 588 x 914 km, 66.7° (Epoch: 29 November)

Event Time Altitude Azimuth Distance (km) Brightness Sun altitude
Rises 15:30:26 0° 334° (NNW) 3,279 8.2 11.3°
Reaches altitude 10° 15:33:11 10° 344° (NNW) 2,289 7.3 10.8°
Maximum altitude 15:37:52 33° 48° (NE) 1,175 5.6 10.1°
Drops below altitude 10° 15:42:10 10° 113° (ESE) 2,088 7.0 9.5°
Sets 15:44:33 0° 123° (ESE) 2,949 7.8 9.1°
